Regional Weather Roundup
Issued by NWS Goodland, KS

Home | Current Version | Previous Version | Graphics & Text | Print | Product List | Glossary On
Versions: 1 2 3 4 5 6 7 8 9 10 11 12 13 14 15 16 17 18 19 20 21 22 23 24 25 26 27 28 29 30 31 32 33 34 35 36 37 38 39 40 41 42 43 44 45 46 47 48 49 50
000
ASUS43 KGLD 291559
RWRGLD

GOODLAND FORECAST AREA HOURLY WEATHER ROUNDUP
NATIONAL WEATHER SERVICE GOODLAND KS
1000 AM MDT FRI MAY 29 2015

...OFFICIAL OBSERVATIONS...

CITY           SKY/WX    TMP DP  RH WIND       PRES   REMARKS
GOODLAND KS    MOSUNNY   66  53  63 N17       30.10R
HILL CITY KS   MOSUNNY   71  57  61 NW10      30.01S
IMPERIAL NEB     N/A     65  54  67 N13       30.08S
MCCOOK NEB     MOSUNNY   68  55  63 NW13      30.03F
AKRON CO       MOSUNNY   60  51  72 N21       30.16R
BURLINGTON CO  MOSUNNY   64  51  62 N16       30.13S
LIMON CO       MOSUNNY   58  47  66 N16       30.19S
$$

...UNOFFICIAL OBSERVATIONS...

CITY           SKY/WX    TMP DP  RH WIND       PRES   REMARKS
COLBY KS       MOSUNNY   66  57  72 N13       30.08S
GOVE KS          N/A     67  32  27 MISG        N/A
LENORA KS        N/A     68  32  26 MISG        N/A
NORTON KS      SUNNY     73  52  46 NW13      30.00F
SHARON SPRINGS   N/A     64  56  77 MISG        N/A
KIT CARSON CO    N/A     64  51  61 MISG        N/A
$$



USA.gov is the U.S. government's official web portal to all federal, state and local government web resources and services.